SHT12U EGLL-EGNT

Flight info

Callsign SHT12U
Flight time 0h 42m
Altitude 34000
Route N0441F340 ULTIB1J ULTIB T420 AKUPA UY250 RIMTO RIMTO2N
Aircraft A319/M-SDE2E3FGHIJ1RWXY/SB1

Departure

Time 2026-05-05 19:57
Airport London Heathrow Airport (EGLL)

Arrival

Time 2026-05-05 20:40
Airport Newcastle International Airport (EGNT)
Time Latitude Longitude Altitude Speed Heading
2026-05-05 18:44 51.46932 -0.48575 87 ft 0 kts
2026-05-05 19:46 51.46915 -0.48576 89 ft 4 kts
2026-05-05 19:46 51.46889 -0.48585 91 ft 4 kts 32°
2026-05-05 19:46 51.46876 -0.48612 89 ft 3 kts 90°
2026-05-05 19:46 51.46876 -0.48627 88 ft 1 kts 90°
2026-05-05 19:51 51.46876 -0.48598 88 ft 6 kts 90°
2026-05-05 19:51 51.46876 -0.48509 87 ft 10 kts 91°
2026-05-05 19:52 51.46815 -0.48470 87 ft 12 kts 180°
2026-05-05 19:52 51.46722 -0.48471 87 ft 15 kts 179°
2026-05-05 19:52 51.46651 -0.48564 87 ft 17 kts 272°
2026-05-05 19:52 51.46651 -0.48644 87 ft 0 kts 269°
2026-05-05 19:54 51.46651 -0.48652 87 ft 2 kts 269°
2026-05-05 19:54 51.46650 -0.48695 87 ft 5 kts 265°
2026-05-05 19:54 51.46626 -0.48755 89 ft 8 kts 214°
2026-05-05 19:54 51.46591 -0.48776 89 ft 0 kts 199°
2026-05-05 19:55 51.46577 -0.48783 88 ft 4 kts 196°
2026-05-05 19:55 51.46537 -0.48791 87 ft 7 kts 179°
2026-05-05 19:55 51.46490 -0.48750 88 ft 9 kts 128°
2026-05-05 19:55 51.46478 -0.48681 88 ft 0 kts 93°
2026-05-05 19:56 51.46478 -0.48679 88 ft 1 kts 93°
2026-05-05 19:57 51.46477 -0.48467 88 ft 48 kts 90°
2026-05-05 19:57 51.46481 -0.47565 86 ft 113 kts 90°
2026-05-05 19:57 51.46484 -0.46015 231 ft 151 kts 87°
2026-05-05 19:57 51.46499 -0.43841 1234 ft 149 kts 87°
2026-05-05 19:58 51.46527 -0.42674 1586 ft 162 kts 86°
2026-05-05 19:58 51.46843 -0.40838 2035 ft 185 kts 62°
2026-05-05 19:58 51.47707 -0.39037 2419 ft 220 kts 50°
2026-05-05 19:58 51.48766 -0.37048 3090 ft 245 kts 50°
2026-05-05 19:59 51.49878 -0.34963 4185 ft 252 kts 49°
2026-05-05 19:59 51.51034 -0.32801 5282 ft 259 kts 49°
2026-05-05 19:59 51.52184 -0.30502 5729 ft 265 kts 57°
2026-05-05 19:59 51.52837 -0.27711 5861 ft 269 kts 75°
2026-05-05 20:00 51.53320 -0.24831 5976 ft 267 kts 63°
2026-05-05 20:00 51.54552 -0.22700 5943 ft 262 kts 26°
2026-05-05 20:00 51.56336 -0.22288 5901 ft 262 kts 353°
2026-05-05 20:00 51.58120 -0.22843 5961 ft 261 kts 349°
2026-05-05 20:01 51.59903 -0.23389 6036 ft 261 kts 350°
2026-05-05 20:01 51.61673 -0.24055 6039 ft 261 kts 341°
2026-05-05 20:01 51.63307 -0.25376 6057 ft 263 kts 331°
2026-05-05 20:01 51.64878 -0.26874 6086 ft 263 kts 330°
2026-05-05 20:02 51.66456 -0.28364 6091 ft 263 kts 330°
2026-05-05 20:02 51.68031 -0.29854 6091 ft 262 kts 330°
2026-05-05 20:02 51.69603 -0.31350 6090 ft 263 kts 330°
2026-05-05 20:02 51.71172 -0.32853 6091 ft 262 kts 330°
2026-05-05 20:03 51.72742 -0.34360 6088 ft 263 kts 330°
2026-05-05 20:03 51.74325 -0.35886 6550 ft 266 kts 330°
2026-05-05 20:03 51.75893 -0.37402 7628 ft 267 kts 329°
2026-05-05 20:03 51.77495 -0.38956 8686 ft 271 kts 329°
2026-05-05 20:04 51.79122 -0.40538 9684 ft 275 kts 329°
2026-05-05 20:04 51.80798 -0.42166 10400 ft 291 kts 329°
2026-05-05 20:04 51.82605 -0.43916 10818 ft 314 kts 329°
2026-05-05 20:04 51.84511 -0.45758 11526 ft 323 kts 328°
2026-05-05 20:05 51.86458 -0.47641 12385 ft 328 kts 328°
2026-05-05 20:05 51.88430 -0.49559 13236 ft 333 kts 328°
2026-05-05 20:05 51.90438 -0.51520 14038 ft 339 kts 327°
2026-05-05 20:05 51.92470 -0.53508 14776 ft 343 kts 327°
2026-05-05 20:06 51.94534 -0.55527 15516 ft 348 kts 327°
2026-05-05 20:06 51.96624 -0.57569 16225 ft 354 kts 327°
2026-05-05 20:06 51.98752 -0.59649 16953 ft 359 kts 327°
2026-05-05 20:06 52.00911 -0.61762 17654 ft 365 kts 327°
2026-05-05 20:07 52.03104 -0.63909 18359 ft 370 kts 327°
2026-05-05 20:07 52.05325 -0.66083 18994 ft 375 kts 327°
2026-05-05 20:07 52.07539 -0.68251 19688 ft 377 kts 327°
2026-05-05 20:07 52.09796 -0.70468 20403 ft 380 kts 327°
2026-05-05 20:08 52.12069 -0.72709 21104 ft 383 kts 327°
2026-05-05 20:08 52.14355 -0.74966 21785 ft 386 kts 327°
2026-05-05 20:08 52.16656 -0.77234 22459 ft 389 kts 327°
2026-05-05 20:08 52.18992 -0.79536 23124 ft 392 kts 327°
2026-05-05 20:09 52.21333 -0.81854 23726 ft 395 kts 326°
2026-05-05 20:09 52.23693 -0.84199 24260 ft 399 kts 326°
2026-05-05 20:09 52.26075 -0.86569 24756 ft 403 kts 326°
2026-05-05 20:09 52.28485 -0.88963 25246 ft 406 kts 326°
2026-05-05 20:10 52.31028 -0.91070 25716 ft 415 kts 338°
2026-05-05 20:10 52.33774 -0.92420 26191 ft 419 kts 341°
2026-05-05 20:10 52.36599 -0.93744 26672 ft 423 kts 341°
2026-05-05 20:10 52.39453 -0.95065 27157 ft 427 kts 341°
2026-05-05 20:11 52.42329 -0.96395 27623 ft 431 kts 341°
2026-05-05 20:11 52.45233 -0.97741 28106 ft 435 kts 341°
2026-05-05 20:11 52.48161 -0.99107 28586 ft 438 kts 341°
2026-05-05 20:11 52.51111 -1.00494 29054 ft 442 kts 341°
2026-05-05 20:12 52.54036 -1.01918 29513 ft 445 kts 340°
2026-05-05 20:12 52.57013 -1.03422 29965 ft 448 kts 340°
2026-05-05 20:12 52.60000 -1.04961 30360 ft 452 kts 340°
2026-05-05 20:12 52.63011 -1.06517 30747 ft 454 kts 340°
2026-05-05 20:13 52.66042 -1.08075 31147 ft 456 kts 340°
2026-05-05 20:13 52.69083 -1.09631 31534 ft 458 kts 340°
2026-05-05 20:13 52.72098 -1.11167 31929 ft 459 kts 341°
2026-05-05 20:13 52.75151 -1.12718 32468 ft 457 kts 341°
2026-05-05 20:14 52.78188 -1.14261 33037 ft 455 kts 341°
2026-05-05 20:14 52.81210 -1.15797 33600 ft 453 kts 341°
2026-05-05 20:14 52.84226 -1.17333 33965 ft 452 kts 341°
2026-05-05 20:15 52.90117 -1.20358 34034 ft 435 kts 341°
2026-05-05 20:15 52.95829 -1.23311 34030 ft 431 kts 341°
2026-05-05 20:16 53.01552 -1.26268 34032 ft 430 kts 341°
2026-05-05 20:16 53.07260 -1.29223 34024 ft 429 kts 341°
2026-05-05 20:17 53.12956 -1.32171 34028 ft 428 kts 341°
2026-05-05 20:17 53.18661 -1.35135 34037 ft 427 kts 341°
2026-05-05 20:18 53.24309 -1.38077 34043 ft 427 kts 341°
2026-05-05 20:18 53.29971 -1.41038 34053 ft 426 kts 341°
2026-05-05 20:19 53.35641 -1.44017 34055 ft 426 kts 341°
2026-05-05 20:19 53.41287 -1.46990 34052 ft 425 kts 341°
2026-05-05 20:20 53.46934 -1.49977 34052 ft 425 kts 340°
2026-05-05 20:20 53.52551 -1.52953 34023 ft 426 kts 340°
2026-05-05 20:20 53.55378 -1.54452 33744 ft 426 kts 340°
2026-05-05 20:21 53.58214 -1.55958 33469 ft 427 kts 340°
2026-05-05 20:21 53.61031 -1.57452 33039 ft 423 kts 340°
2026-05-05 20:21 53.63826 -1.58936 32495 ft 421 kts 340°
2026-05-05 20:21 53.66615 -1.60418 31964 ft 418 kts 340°
2026-05-05 20:22 53.69384 -1.61892 31396 ft 416 kts 340°
2026-05-05 20:22 53.72109 -1.63351 30851 ft 414 kts 340°
2026-05-05 20:22 53.74854 -1.64825 30300 ft 412 kts 340°
2026-05-05 20:22 53.77597 -1.66298 29693 ft 410 kts 340°
2026-05-05 20:23 53.80310 -1.67757 29150 ft 406 kts 340°
2026-05-05 20:23 53.82970 -1.69189 28614 ft 403 kts 340°
2026-05-05 20:23 53.85635 -1.70622 28074 ft 400 kts 339°
2026-05-05 20:23 53.88285 -1.72047 27540 ft 397 kts 339°
2026-05-05 20:24 53.90918 -1.73466 27016 ft 395 kts 339°
2026-05-05 20:24 53.93537 -1.74882 26502 ft 393 kts 339°
2026-05-05 20:24 53.96103 -1.76268 26006 ft 391 kts 339°
2026-05-05 20:24 53.98694 -1.77669 25517 ft 389 kts 339°
2026-05-05 20:25 54.01269 -1.79066 25141 ft 390 kts 339°
2026-05-05 20:25 54.03860 -1.80533 25006 ft 391 kts 338°
2026-05-05 20:25 54.06439 -1.82064 24173 ft 397 kts 337°
2026-05-05 20:25 54.09082 -1.83681 23233 ft 404 kts 337°
2026-05-05 20:26 54.11714 -1.85203 22529 ft 404 kts 342°
2026-05-05 20:26 54.14480 -1.85953 21925 ft 403 kts 354°
2026-05-05 20:26 54.17283 -1.85707 21301 ft 403 kts
2026-05-05 20:26 54.20032 -1.84850 20688 ft 401 kts
2026-05-05 20:27 54.22771 -1.83980 20091 ft 398 kts
2026-05-05 20:27 54.25478 -1.83121 19502 ft 394 kts
2026-05-05 20:27 54.28165 -1.82275 18984 ft 389 kts
2026-05-05 20:27 54.30827 -1.81443 18371 ft 386 kts
2026-05-05 20:28 54.33451 -1.80623 17680 ft 383 kts
2026-05-05 20:28 54.36050 -1.79806 17125 ft 376 kts
2026-05-05 20:28 54.38622 -1.78995 16468 ft 373 kts
2026-05-05 20:28 54.41153 -1.78197 15891 ft 366 kts
2026-05-05 20:29 54.43633 -1.77414 15203 ft 365 kts
2026-05-05 20:29 54.46106 -1.76628 14659 ft 359 kts
2026-05-05 20:29 54.48556 -1.75844 14029 ft 356 kts
2026-05-05 20:29 54.50993 -1.75063 13363 ft 353 kts
2026-05-05 20:30 54.53397 -1.74298 12695 ft 349 kts
2026-05-05 20:30 54.55768 -1.73804 12357 ft 334 kts 355°
2026-05-05 20:30 54.58003 -1.74387 12119 ft 318 kts 346°
2026-05-05 20:30 54.60133 -1.75154 11796 ft 309 kts 345°
2026-05-05 20:31 54.62233 -1.75933 11323 ft 307 kts 345°
2026-05-05 20:31 54.64315 -1.76719 10856 ft 305 kts 345°
2026-05-05 20:31 54.66381 -1.77514 10402 ft 303 kts 345°
2026-05-05 20:31 54.68406 -1.78303 9959 ft 301 kts 345°
2026-05-05 20:32 54.70441 -1.79108 9489 ft 298 kts 345°
2026-05-05 20:32 54.72449 -1.79911 8938 ft 294 kts 345°
2026-05-05 20:32 54.74425 -1.80709 8305 ft 288 kts 345°
2026-05-05 20:32 54.76364 -1.81503 7609 ft 284 kts 345°
2026-05-05 20:33 54.78274 -1.82296 6935 ft 280 kts 345°
2026-05-05 20:33 54.80151 -1.83088 6265 ft 275 kts 345°
2026-05-05 20:33 54.81997 -1.83886 5554 ft 272 kts 346°
2026-05-05 20:33 54.83824 -1.84719 4828 ft 270 kts 346°
2026-05-05 20:34 54.85560 -1.85560 4577 ft 252 kts 345°
2026-05-05 20:34 54.87182 -1.86374 4451 ft 234 kts 345°
2026-05-05 20:34 54.88683 -1.87141 4321 ft 216 kts 345°
2026-05-05 20:34 54.90064 -1.87860 4185 ft 198 kts 345°
2026-05-05 20:35 54.91323 -1.88533 4016 ft 183 kts 345°
2026-05-05 20:35 54.92523 -1.89187 3661 ft 180 kts 345°
2026-05-05 20:35 54.93718 -1.89853 3238 ft 181 kts 346°
2026-05-05 20:35 54.94918 -1.90536 2916 ft 180 kts 347°
2026-05-05 20:36 54.96126 -1.90584 2649 ft 172 kts 14°
2026-05-05 20:36 54.97241 -1.89891 2535 ft 170 kts 30°
2026-05-05 20:36 54.98196 -1.88700 2508 ft 169 kts 44°
2026-05-05 20:36 54.98931 -1.87117 2403 ft 166 kts 58°
2026-05-05 20:37 54.99420 -1.85365 2242 ft 158 kts 63°
2026-05-05 20:37 54.99729 -1.84213 2087 ft 152 kts 63°
2026-05-05 20:37 55.00147 -1.82652 1897 ft 135 kts 62°
2026-05-05 20:37 55.00637 -1.80818 1661 ft 119 kts 62°
2026-05-05 20:38 55.00866 -1.79962 1554 ft 117 kts 63°
2026-05-05 20:38 55.01206 -1.78692 1387 ft 115 kts 63°
2026-05-05 20:38 55.01542 -1.77434 1219 ft 114 kts 62°
2026-05-05 20:38 55.01878 -1.76179 1040 ft 114 kts 63°
2026-05-05 20:39 55.02211 -1.74937 862 ft 113 kts 63°
2026-05-05 20:39 55.02542 -1.73692 742 ft 113 kts 64°
2026-05-05 20:39 55.02873 -1.72440 595 ft 115 kts 64°
2026-05-05 20:39 55.03206 -1.71180 406 ft 114 kts 65°
2026-05-05 20:40 55.03538 -1.69935 275 ft 108 kts 66°
2026-05-05 20:40 55.03781 -1.69028 263 ft 64 kts 65°
2026-05-05 20:40 55.03911 -1.68533 261 ft 34 kts 64°
2026-05-05 20:40 55.04074 -1.68261 257 ft 31 kts 34°
2026-05-05 20:41 55.04145 -1.68348 258 ft 21 kts 243°
2026-05-05 20:41 55.04078 -1.68591 260 ft 24 kts 245°
2026-05-05 20:41 55.04006 -1.68866 263 ft 26 kts 245°
2026-05-05 20:41 55.03926 -1.69169 266 ft 29 kts 245°
2026-05-05 20:42 55.03838 -1.69499 269 ft 29 kts 247°
2026-05-05 20:42 55.03784 -1.69826 271 ft 28 kts 260°
2026-05-05 20:42 55.03773 -1.70179 269 ft 30 kts 272°
2026-05-05 20:42 55.03771 -1.70398 269 ft 15 kts 235°
2026-05-05 20:43 55.03685 -1.70436 272 ft 11 kts 184°
2026-05-05 20:43 55.03618 -1.70464 274 ft 9 kts 216°
2026-05-05 20:43 55.03591 -1.70567 275 ft 11 kts 263°
2026-05-05 20:43 55.03593 -1.70700 275 ft 11 kts 274°
2026-05-05 20:44 55.03599 -1.70820 275 ft 8 kts 276°
2026-05-05 20:44 55.03629 -1.70851 275 ft 5 kts
2026-05-05 20:44 55.03663 -1.70846 273 ft 3 kts
2026-05-05 20:44 55.03671 -1.70845 273 ft 1 kts
2026-05-05 20:45 55.03672 -1.70845 273 ft 0 kts